| time (UTC) | temp F | wind direction | speed MPH | gust MPH | rain 1hr in | rain 24hr in | rain mn in | humidity % | barometer mb |
| 20260509220032 | 83 | 354 | 0.0 | 3.0 | 0.00 | 0.00 | 0.00 | 42 | 1010.5 |
| 20260509214532 | 83 | 333 | 0.0 | 3.0 | 0.00 | 0.00 | 0.00 | 43 | 1010.5 |
| 20260509213029 | 83 | 270 | 0.0 | 3.0 | 0.00 | 0.00 | 0.00 | 45 | 1010.7 |
| 20260509210027 | 82 | 19 | 1.0 | 4.0 | 0.00 | 0.00 | 0.00 | 46 | 1010.7 |
| 20260509204523 | 83 | 314 | 0.0 | 3.0 | 0.00 | 0.00 | 0.00 | 48 | 1010.8 |
| 20260509203024 | 82 | 288 | 0.0 | 4.0 | 0.00 | 0.00 | 0.00 | 48 | 1011.0 |
| 20260509200019 | 81 | 316 | 0.0 | 3.0 | 0.00 | 0.00 | 0.00 | 48 | 1011.1 |
| 20260509194518 | 81 | 284 | 0.0 | 3.0 | 0.00 | 0.00 | 0.00 | 48 | 1011.2 |
| 20260509193017 | 81 | 32 | 1.0 | 3.0 | 0.00 | 0.00 | 0.00 | 46 | 1011.4 |
| 20260509190017 | 82 | 240 | 0.0 | 2.0 | 0.00 | 0.00 | 0.00 | 47 | 1011.7 |
| 20260509184516 | 80 | 259 | 0.0 | 2.0 | 0.00 | 0.00 | 0.00 | 48 | 1011.9 |
| 20260509183011 | 80 | 18 | 1.0 | 3.0 | 0.00 | 0.00 | 0.00 | 46 | 1011.9 |
| 20260509180002 | 78 | 163 | 0.0 | 2.0 | 0.00 | 0.00 | 0.00 | 46 | 1012.1 |
| 20260509174601 | 77 | 232 | 0.0 | 3.0 | 0.00 | 0.00 | 0.00 | 46 | 1012.0 |
| 20260509173118 | 76 | 325 | 0.0 | 2.0 | 0.00 | 0.00 | 0.00 | 52 | 1012.0 |
| 20260509170110 | 75 | 276 | 0.0 | 1.0 | 0.00 | 0.00 | 0.00 | 52 | 1012.0 |
| 20260509164558 | 74 | 292 | 0.0 | 2.0 | 0.00 | 0.00 | 0.00 | 55 | 1012.0 |
| 20260509163051 | 73 | 295 | 0.0 | 2.0 | 0.00 | 0.00 | 0.00 | 60 | 1011.9 |
| 20260509160047 | 72 | 143 | 0.0 | 0.0 | 0.00 | 0.00 | 0.00 | 62 | 1012.2 |
| 20260509154540 | 69 | 144 | 0.0 | 1.0 | 0.00 | 0.00 | 0.00 | 64 | 1012.2 |
| 20260509153036 | 65 | 143 | 0.0 | 1.0 | 0.00 | 0.00 | 0.00 | 68 | 1012.4 |
| 20260509150029 | 58 | 144 | 0.0 | 1.0 | 0.00 | 0.00 | 0.00 | 80 | 1012.4 |
| 20260509144524 | 54 | 138 | 0.0 | 1.0 | 0.00 | 0.00 | 0.00 | 86 | 1012.6 |
| 20260509143024 | 53 | 160 | 0.0 | 2.0 | 0.00 | 0.00 | 0.00 | 87 | 1012.5 |
| 20260509140022 | 51 | 132 | 1.0 | 4.0 | 0.00 | 0.00 | 0.00 | 88 | 1012.6 |
| 20260509134521 | 50 | 141 | 0.0 | 2.0 | 0.00 | 0.00 | 0.00 | 90 | 1012.4 |
| 20260509133021 | 50 | 133 | 0.0 | 1.0 | 0.00 | 0.00 | 0.00 | 91 | 1012.3 |
| 20260509130050 | 50 | 138 | 0.0 | 3.0 | 0.00 | 0.00 | 0.00 | 90 | 1012.0 |
| 20260509124529 | 50 | 144 | 1.0 | 3.0 | 0.00 | 0.00 | 0.00 | 89 | 1012.0 |
| 20260509123016 | 50 | 141 | 1.0 | 3.0 | 0.00 | 0.00 | 0.00 | 89 | 1012.0 |
| 20260509120023 | 50 | 138 | 0.0 | 3.0 | 0.00 | 0.00 | 0.00 | 89 | 1011.9 |
| 20260509114517 | 51 | 142 | 1.0 | 3.0 | 0.00 | 0.00 | 0.00 | 88 | 1012.0 |
| 20260509113013 | 51 | 134 | 1.0 | 4.0 | 0.00 | 0.00 | 0.00 | 88 | 1012.1 |
| 20260509110115 | 50 | 141 | 1.0 | 4.0 | 0.00 | 0.00 | 0.00 | 90 | 1012.2 |
| 20260509104513 | 51 | 136 | 0.0 | 2.0 | 0.00 | 0.00 | 0.00 | 89 | 1012.3 |
| 20260509103013 | 51 | 124 | 0.0 | 2.0 | 0.00 | 0.00 | 0.00 | 90 | 1012.3 |
| 20260509100009 | 51 | 142 | 0.0 | 2.0 | 0.00 | 0.00 | 0.00 | 89 | 1012.4 |
| 20260509094508 | 51 | 130 | 0.0 | 3.0 | 0.00 | 0.00 | 0.00 | 88 | 1012.3 |
| 20260509093007 | 51 | 142 | 1.0 | 3.0 | 0.00 | 0.00 | 0.00 | 89 | 1012.4 |
| 20260509090003 | 51 | 152 | 0.0 | 3.0 | 0.00 | 0.00 | 0.00 | 89 | 1012.5 |
| 20260509084502 | 51 | 153 | 1.0 | 3.0 | 0.00 | 0.00 | 0.00 | 89 | 1012.6 |
| 20260509083059 | 52 | 153 | 0.0 | 3.0 | 0.00 | 0.00 | 0.00 | 88 | 1012.6 |
| 20260509080100 | 52 | 136 | 0.0 | 3.0 | 0.00 | 0.00 | 0.00 | 89 | 1012.8 |
| 20260509074553 | 52 | 135 | 0.0 | 0.0 | 0.00 | 0.00 | 0.00 | 90 | 1012.7 |
| 20260509073051 | 53 | 136 | 0.0 | 2.0 | 0.00 | 0.00 | 0.00 | 89 | 1012.6 |
| 20260509070052 | 53 | 141 | 0.0 | 1.0 | 0.00 | 0.00 | 0.00 | 88 | 1012.6 |
| 20260509064557 | 54 | 143 | 0.0 | 1.0 | 0.00 | 0.00 | 0.00 | 88 | 1012.5 |
| 20260509063048 | 55 | 138 | 1.0 | 2.0 | 0.00 | 0.00 | 0.00 | 87 | 1012.5 |
| 20260509060046 | 56 | 136 | 0.0 | 1.0 | 0.00 | 0.00 | 0.00 | 86 | 1012.7 |
| 20260509054605 | 56 | 133 | 0.0 | 1.0 | 0.00 | 0.00 | 0.00 | 85 | 1012.8 |
| 20260509053051 | 57 | 132 | 0.0 | 1.0 | 0.00 | 0.00 | 0.00 | 84 | 1012.7 |
| 20260509050046 | 58 | 133 | 0.0 | 1.0 | 0.00 | 0.00 | 0.00 | 83 | 1012.8 |
| 20260509044545 | 58 | 134 | 0.0 | 2.0 | 0.00 | 0.00 | 0.00 | 82 | 1012.7 |
| 20260509043045 | 59 | 146 | 0.0 | 1.0 | 0.00 | 0.00 | 0.00 | 81 | 1012.6 |
| 20260509040045 | 61 | 149 | 0.0 | 1.0 | 0.00 | 0.00 | 0.00 | 76 | 1012.6 |
| 20260509034543 | 63 | 152 | 0.0 | 0.0 | 0.00 | 0.00 | 0.00 | 74 | 1012.5 |
| 20260509033043 | 64 | 153 | 0.0 | 0.0 | 0.00 | 0.00 | 0.00 | 70 | 1012.5 |
| 20260509030043 | 66 | 152 | 0.0 | 0.0 | 0.00 | 0.00 | 0.00 | 65 | 1012.2 |
| 20260509024541 | 68 | 150 | 0.0 | 0.0 | 0.00 | 0.00 | 0.00 | 63 | 1012.2 |
| 20260509023041 | 69 | 150 | 0.0 | 0.0 | 0.00 | 0.00 | 0.00 | 62 | 1012.2 |
| 20260509020044 | 71 | 24 | 0.0 | 0.0 | 0.00 | 0.00 | 0.00 | 57 | 1012.1 |
| 20260509014543 | 72 | 25 | 0.0 | 1.0 | 0.00 | 0.00 | 0.00 | 54 | 1012.1 |
| 20260509013040 | 73 | 5 | 0.0 | 2.0 | 0.00 | 0.00 | 0.00 | 54 | 1012.1 |
| 20260509010045 | 76 | 348 | 0.0 | 1.0 | 0.00 | 0.00 | 0.00 | 45 | 1012.2 |
| 20260509004538 | 78 | 100 | 0.0 | 3.0 | 0.00 | 0.00 | 0.00 | 44 | 1012.2 |
| 20260509003044 | 79 | 1 | 0.0 | 3.0 | 0.00 | 0.00 | 0.00 | 43 | 1012.3 |
| 20260509000034 | 81 | 327 | 1.0 | 2.0 | 0.00 | 0.00 | 0.00 | 39 | 1012.5 |
| 20260508234533 | 80 | 311 | 0.0 | 2.0 | 0.00 | 0.00 | 0.00 | 40 | 1012.6 |
| 20260508233032 | 80 | 336 | 1.0 | 3.0 | 0.00 | 0.00 | 0.00 | 39 | 1012.7 |
| 20260508230029 | 81 | 8 | 0.0 | 2.0 | 0.00 | 0.00 | 0.00 | 37 | 1013.0 |
| 20260508224528 | 81 | 325 | 1.0 | 3.0 | 0.00 | 0.00 | 0.00 | 37 | 1013.2 |
| 20260508223033 | 80 | 353 | 0.0 | 3.0 | 0.00 | 0.00 | 0.00 | 36 | 1013.3 |